Twin Falls, ID

11:49 PM MDT on April 22, 2017 (GMT -0600)
Joslin Field-Magic Valley Regional

Weather History for KTWF - July, 2013

Change the Weather History Date:

Saturday, July 13, 2013

  Actual Average Record
Temperature  
Mean Temperature 75 °F -  
Max Temperature 88 °F 90 °F 101 °F (1990)
Min Temperature 61 °F 58 °F 41 °F (1997)
Degree Days  
Heating Degree Days 0 0  
Month to date heating degree days 0 3  
Since 1 June heating degree days 55 90  
Since 1 July heating degree days 0 3  
Cooling Degree Days 10 9  
Month to date cooling degree days 179 98  
Year to date cooling degree days 377 207  
Since 1 June cooling degree days 352 185  
Growing Degree Days 25 (Base 50)    
Moisture  
Dew Point 35 °F    
Average Humidity 31    
Maximum Humidity 48    
Minimum Humidity 14    
Precipitation  
Precipitation 0.00 in 0.01 in 0.19 in (1989)
Month to date precipitation 0.16 0.14  
Year to date precipitation 3.19 6.40  
Sea Level Pressure  
Sea Level Pressure 29.89 in    
Wind  
Wind Speed 10 mph (WSW)    
Max Wind Speed 18 mph    
Max Gust Speed 23 mph    
Visibility 10 miles    
Events      
T = Trace of Precipitation, MM = Missing Value Source: NWS Daily Summary

Daily Weather History Graph

Daily Weather History Graph

Search for Another Location

Airport or City:

Trip Planner

Search our weather history database for the weather conditions in past years. The results will help you decide how hot, cold, wet, or windy it might be!

Date:

Astronomy

Jul. 13, 2013 Rise Set
Actual Time 6:12 AM MDT 9:14 PM MDT
Civil Twilight 5:38 AM MDT 9:48 PM MDT
Nautical Twilight 4:55 AM MDT 10:31 PM MDT
Astronomical Twilight 4:04 AM MDT 11:21 PM MDT
Moon 11:40 AM MDT (7/13) 11:48 PM MDT (7/13)
Length of Visible Light 16h 09m
Length of Day
15h 01m
Waxing Crescent, 26% of the Moon is Illuminated
Jul 13
Waxing Crescent
Jul 15
First Quarter
Jul 22
Full
Jul 29
Last Quarter
Aug 6
New

Hourly Weather History & Observations

Time (MDT) Temp. Dew Point Humidity Pressure Visibility Wind Dir Wind Speed Gust Speed Precip Events Conditions
12:53 AM 68.0 °F 37.9 °F 33% 29.75 in 10.0 mi South 12.7 mph - N/A   Clear
1:53 AM 69.1 °F 37.0 °F 31% 29.75 in 10.0 mi South 13.8 mph - N/A   Clear
2:53 AM 68.0 °F 33.1 °F 27% 29.78 in 10.0 mi SW 12.7 mph - N/A   Clear
3:53 AM 64.9 °F 33.1 °F 31% 29.81 in 10.0 mi SW 12.7 mph - N/A   Clear
4:53 AM 64.0 °F 33.1 °F 31% 29.84 in 10.0 mi SSW 12.7 mph - N/A   Clear
5:53 AM 63.0 °F 33.1 °F 33% 29.86 in 10.0 mi SSW 17.3 mph - N/A   Clear
6:53 AM 63.0 °F 33.1 °F 33% 29.88 in 10.0 mi SSW 16.1 mph - N/A   Clear
7:53 AM 64.0 °F 33.1 °F 31% 29.91 in 10.0 mi SSW 12.7 mph - N/A   Clear
8:53 AM 70.0 °F 30.9 °F 24% 29.93 in 10.0 mi WSW 17.3 mph - N/A   Clear
9:53 AM 72.0 °F 30.9 °F 22% 29.96 in 10.0 mi WSW 11.5 mph 21.9 mph N/A   Clear
10:53 AM 75.9 °F 30.9 °F 19% 29.95 in 10.0 mi West 13.8 mph - N/A   Clear
11:53 AM 80.1 °F 33.1 °F 18% 29.95 in 10.0 mi WNW 15.0 mph - N/A   Clear
12:53 PM 82.0 °F 34.0 °F 18% 29.95 in 10.0 mi NW 9.2 mph - N/A   Clear
1:53 PM 84.0 °F 34.0 °F 17% 29.93 in 10.0 mi West 8.1 mph - N/A   Clear
2:53 PM 84.9 °F 35.1 °F 17% 29.92 in 10.0 mi WNW 9.2 mph 17.3 mph N/A   Clear
3:53 PM 86.0 °F 35.1 °F 16% 29.91 in 10.0 mi WNW 9.2 mph 16.1 mph N/A   Clear
4:53 PM 88.0 °F 32.0 °F 14% 29.89 in 10.0 mi NW 9.2 mph - N/A   Clear
5:53 PM 87.1 °F 33.1 °F 15% 29.88 in 10.0 mi NW 6.9 mph - N/A   Clear
6:53 PM 86.0 °F 33.1 °F 15% 29.88 in 10.0 mi NW 5.8 mph - N/A   Clear
7:53 PM 84.9 °F 32.0 °F 15% 29.88 in 10.0 mi Calm Calm - N/A   Clear
8:53 PM 72.0 °F 46.9 °F 41% 29.90 in 10.0 mi SSE 6.9 mph - N/A   Clear
9:53 PM 64.9 °F 42.1 °F 43% 29.91 in 10.0 mi SSE 8.1 mph - N/A   Clear
10:53 PM 62.1 °F 43.0 °F 50% 29.93 in 10.0 mi South 6.9 mph - N/A   Clear
11:53 PM 66.9 °F 36.0 °F 32% 29.92 in 10.0 mi SW 6.9 mph - N/A   Clear